TAP72 LPPT-GVAC

Flight info

Callsign TAP72
Flight time 3h 46m
Altitude 39000
Route ULVOT DCT BEXAL DCT SAMAR/N0482F410 N873 ODEGI/N0483F400 N873 IPERA DCT DIMKI DIMKI1S
Aircraft A359/H-SDE2E3GHIJ3J4J5LM1ORWXY/LB1D1

Departure

Time 2026-05-07 14:18
Airport Lisbon Humberto Delgado Airport (LPPT)

Arrival

Time 2026-05-07 18:05
Airport Amílcar Cabral International Airport (GVAC)
Time Latitude Longitude Altitude Speed Heading
2026-05-07 13:44 38.77609 -9.13205 354 ft 0 kts 78°
2026-05-07 13:45 38.77608 -9.13205 354 ft 0 kts 78°
2026-05-07 14:02 38.77607 -9.13212 344 ft 4 kts 79°
2026-05-07 14:02 38.77601 -9.13244 348 ft 4 kts 53°
2026-05-07 14:02 38.77588 -9.13265 355 ft 4 kts 61°
2026-05-07 14:03 38.77583 -9.13295 353 ft 4 kts 98°
2026-05-07 14:03 38.77593 -9.13316 355 ft 4 kts 167°
2026-05-07 14:03 38.77618 -9.13319 355 ft 2 kts 180°
2026-05-07 14:03 38.77604 -9.13320 355 ft 4 kts 182°
2026-05-07 14:04 38.77577 -9.13319 355 ft 4 kts 173°
2026-05-07 14:04 38.77563 -9.13314 354 ft 1 kts 168°
2026-05-07 14:04 38.77564 -9.13309 354 ft 0 kts 168°
2026-05-07 14:04 38.77564 -9.13308 355 ft 0 kts 168°
2026-05-07 14:05 38.77548 -9.13304 354 ft 0 kts 168°
2026-05-07 14:05 38.77531 -9.13300 353 ft 9 kts 168°
2026-05-07 14:05 38.77525 -9.13298 352 ft 0 kts 168°
2026-05-07 14:12 38.77519 -9.13296 368 ft 0 kts 168°
2026-05-07 14:13 38.77479 -9.13287 351 ft 12 kts 172°
2026-05-07 14:13 38.77388 -9.13271 354 ft 15 kts 177°
2026-05-07 14:13 38.77319 -9.13339 353 ft 13 kts 256°
2026-05-07 14:14 38.77305 -9.13444 361 ft 12 kts 258°
2026-05-07 14:14 38.77290 -9.13541 362 ft 11 kts 259°
2026-05-07 14:14 38.77274 -9.13638 364 ft 11 kts 257°
2026-05-07 14:14 38.77257 -9.13740 363 ft 13 kts 258°
2026-05-07 14:15 38.77229 -9.13850 369 ft 12 kts 230°
2026-05-07 14:15 38.77145 -9.13894 363 ft 15 kts 200°
2026-05-07 14:15 38.77034 -9.13951 358 ft 20 kts 202°
2026-05-07 14:15 38.76894 -9.14024 356 ft 23 kts 203°
2026-05-07 14:16 38.76731 -9.14112 359 ft 27 kts 202°
2026-05-07 14:16 38.76589 -9.14250 353 ft 25 kts 273°
2026-05-07 14:16 38.76684 -9.14365 354 ft 0 kts
2026-05-07 14:17 38.76721 -9.14351 350 ft 27 kts 19°
2026-05-07 14:17 38.77139 -9.14125 368 ft 103 kts 22°
2026-05-07 14:17 38.78009 -9.13686 376 ft 161 kts 21°
2026-05-07 14:18 38.79114 -9.13050 830 ft 182 kts 19°
2026-05-07 14:18 38.80306 -9.12333 1585 ft 198 kts 19°
2026-05-07 14:18 38.81615 -9.11430 2070 ft 231 kts 29°
2026-05-07 14:18 38.83056 -9.10284 2711 ft 252 kts 28°
2026-05-07 14:19 38.84580 -9.09115 3637 ft 258 kts 27°
2026-05-07 14:19 38.86156 -9.07936 4455 ft 268 kts 31°
2026-05-07 14:19 38.87543 -9.06303 5273 ft 276 kts 57°
2026-05-07 14:19 38.88176 -9.04048 6230 ft 273 kts 88°
2026-05-07 14:20 38.87869 -9.01685 7251 ft 269 kts 116°
2026-05-07 14:20 38.86968 -8.99580 8303 ft 270 kts 127°
2026-05-07 14:20 38.85648 -8.97869 9307 ft 273 kts 147°
2026-05-07 14:20 38.83897 -8.96933 10249 ft 278 kts 169°
2026-05-07 14:21 38.81911 -8.96966 10748 ft 299 kts 194°
2026-05-07 14:21 38.79877 -8.97917 11191 ft 323 kts 203°
2026-05-07 14:21 38.77763 -8.99110 11790 ft 338 kts 204°
2026-05-07 14:21 38.75607 -9.00316 12623 ft 346 kts 204°
2026-05-07 14:22 38.73367 -9.01546 13444 ft 355 kts 203°
2026-05-07 14:22 38.71073 -9.02792 14209 ft 362 kts 203°
2026-05-07 14:22 38.68742 -9.04047 15077 ft 365 kts 204°
2026-05-07 14:22 38.66401 -9.05303 16029 ft 365 kts 204°
2026-05-07 14:23 38.64030 -9.06575 16744 ft 373 kts 204°
2026-05-07 14:23 38.61610 -9.07871 17481 ft 379 kts 205°
2026-05-07 14:23 38.59165 -9.09177 18306 ft 383 kts 205°
2026-05-07 14:23 38.56734 -9.10474 19132 ft 384 kts 205°
2026-05-07 14:24 38.54263 -9.11791 19911 ft 386 kts 205°
2026-05-07 14:24 38.51773 -9.13117 20696 ft 389 kts 205°
2026-05-07 14:24 38.49262 -9.14454 21486 ft 393 kts 205°
2026-05-07 14:24 38.46731 -9.15800 22285 ft 396 kts 205°
2026-05-07 14:25 38.44175 -9.17167 23050 ft 399 kts 206°
2026-05-07 14:25 38.41705 -9.18777 23756 ft 400 kts 214°
2026-05-07 14:25 38.39419 -9.20818 24379 ft 402 kts 220°
2026-05-07 14:25 38.37188 -9.22997 24978 ft 406 kts 220°
2026-05-07 14:26 38.34940 -9.25207 25616 ft 410 kts 220°
2026-05-07 14:26 38.32703 -9.27399 26221 ft 413 kts 220°
2026-05-07 14:26 38.30410 -9.29637 26824 ft 417 kts 221°
2026-05-07 14:26 38.28097 -9.31891 27425 ft 420 kts 221°
2026-05-07 14:27 38.25768 -9.34156 28045 ft 423 kts 221°
2026-05-07 14:27 38.23417 -9.36441 28663 ft 426 kts 221°
2026-05-07 14:27 38.21050 -9.38739 29242 ft 430 kts 221°
2026-05-07 14:27 38.18662 -9.41055 29824 ft 433 kts 221°
2026-05-07 14:28 38.16259 -9.43383 30325 ft 437 kts 221°
2026-05-07 14:28 38.13834 -9.45731 30821 ft 439 kts 222°
2026-05-07 14:28 38.11441 -9.48043 31366 ft 439 kts 222°
2026-05-07 14:28 38.09008 -9.50394 31893 ft 439 kts 222°
2026-05-07 14:29 38.06571 -9.52746 32355 ft 441 kts 222°
2026-05-07 14:29 38.04126 -9.55105 32789 ft 443 kts 222°
2026-05-07 14:29 38.01669 -9.57473 33203 ft 444 kts 222°
2026-05-07 14:29 37.99206 -9.59850 33669 ft 444 kts 223°
2026-05-07 14:30 37.96842 -9.62316 34265 ft 438 kts 225°
2026-05-07 14:30 37.94536 -9.64823 34787 ft 435 kts 226°
2026-05-07 14:30 37.92241 -9.67309 35225 ft 434 kts 225°
2026-05-07 14:30 37.89974 -9.69749 35647 ft 433 kts 225°
2026-05-07 14:31 37.87676 -9.72209 36072 ft 432 kts 225°
2026-05-07 14:31 37.85383 -9.74656 36471 ft 431 kts 225°
2026-05-07 14:31 37.83093 -9.77095 36876 ft 430 kts 225°
2026-05-07 14:31 37.80810 -9.79522 37269 ft 429 kts 225°
2026-05-07 14:32 37.78527 -9.81946 37669 ft 427 kts 225°
2026-05-07 14:32 37.76256 -9.84355 38069 ft 425 kts 225°
2026-05-07 14:32 37.74000 -9.86745 38527 ft 422 kts 225°
2026-05-07 14:32 37.71750 -9.89127 38832 ft 422 kts 225°
2026-05-07 14:33 37.69524 -9.91485 38946 ft 424 kts 225°
2026-05-07 14:33 37.65005 -9.96259 38956 ft 424 kts 225°
2026-05-07 14:34 37.60453 -10.00994 38955 ft 426 kts 222°
2026-05-07 14:34 37.55619 -10.05361 38959 ft 428 kts 220°
2026-05-07 14:35 37.50755 -10.09588 38944 ft 428 kts 220°
2026-05-07 14:35 37.45888 -10.13893 38959 ft 427 kts 220°
2026-05-07 14:36 37.41043 -10.18234 38956 ft 427 kts 220°
2026-05-07 14:36 37.36207 -10.22578 38962 ft 427 kts 220°
2026-05-07 14:37 37.31404 -10.26883 38959 ft 426 kts 220°
2026-05-07 14:37 37.24159 -10.33359 38965 ft 426 kts 220°
2026-05-07 14:38 37.19323 -10.37672 38963 ft 426 kts 220°
2026-05-07 14:38 37.14488 -10.41978 38969 ft 427 kts 220°
2026-05-07 14:39 37.10464 -10.45556 38969 ft 427 kts 220°
2026-05-07 14:39 37.04836 -10.50552 38968 ft 427 kts 220°
2026-05-07 14:40 36.99991 -10.54846 38941 ft 426 kts 220°
2026-05-07 14:40 36.95972 -10.58402 38973 ft 426 kts 220°
2026-05-07 14:41 36.91150 -10.62662 38971 ft 424 kts 220°
2026-05-07 14:41 36.86334 -10.66911 38971 ft 423 kts 220°
2026-05-07 14:42 36.80740 -10.71839 38969 ft 423 kts 220°
2026-05-07 14:42 36.76738 -10.75358 38968 ft 423 kts 220°
2026-05-07 14:43 36.71924 -10.79586 38972 ft 423 kts 220°
2026-05-07 14:43 36.67107 -10.83809 38974 ft 423 kts 220°
2026-05-07 14:44 36.62285 -10.88031 38973 ft 423 kts 220°
2026-05-07 14:44 36.57471 -10.92238 38974 ft 423 kts 220°
2026-05-07 14:45 36.52681 -10.96419 38977 ft 423 kts 219°
2026-05-07 14:45 36.47876 -11.00605 38962 ft 422 kts 219°
2026-05-07 14:46 36.43074 -11.04781 38977 ft 421 kts 219°
2026-05-07 14:46 36.38275 -11.08950 38978 ft 421 kts 219°
2026-05-07 14:47 36.33509 -11.13084 38975 ft 421 kts 219°
2026-05-07 14:47 36.28710 -11.17240 38980 ft 421 kts 219°
2026-05-07 14:48 36.23908 -11.21393 38979 ft 421 kts 219°
2026-05-07 14:48 36.19114 -11.25531 38981 ft 420 kts 219°
2026-05-07 14:49 36.14357 -11.29632 38977 ft 419 kts 219°
2026-05-07 14:49 36.09575 -11.33748 38975 ft 419 kts 219°
2026-05-07 14:50 36.04792 -11.37859 38972 ft 418 kts 219°
2026-05-07 14:50 36.00018 -11.41960 38977 ft 418 kts 219°
2026-05-07 14:51 35.95076 -11.45789 38952 ft 422 kts 213°
2026-05-07 14:51 35.89903 -11.49109 38983 ft 422 kts 212°
2026-05-07 14:52 35.84655 -11.52369 38980 ft 422 kts 212°
2026-05-07 14:52 35.79408 -11.55619 38982 ft 422 kts 212°
2026-05-07 14:53 35.74166 -11.58873 38983 ft 422 kts 212°
2026-05-07 14:53 35.68933 -11.62125 38987 ft 422 kts 212°
2026-05-07 14:54 35.63726 -11.65361 38987 ft 422 kts 212°
2026-05-07 14:54 35.58485 -11.68610 38988 ft 422 kts 212°
2026-05-07 14:55 35.53249 -11.71861 38987 ft 422 kts 212°
2026-05-07 14:55 35.48026 -11.75128 38987 ft 422 kts 213°
2026-05-07 14:56 35.42821 -11.78361 38990 ft 422 kts 212°
2026-05-07 14:56 35.37581 -11.81591 38990 ft 422 kts 212°
2026-05-07 14:57 35.32340 -11.84818 38990 ft 422 kts 212°
2026-05-07 14:57 35.27086 -11.88025 38992 ft 422 kts 212°
2026-05-07 14:58 35.21833 -11.91234 38993 ft 422 kts 212°
2026-05-07 14:58 35.16623 -11.94411 38993 ft 422 kts 212°
2026-05-07 14:59 35.11366 -11.97620 38993 ft 422 kts 212°
2026-05-07 14:59 35.06109 -12.00822 39057 ft 423 kts 212°
2026-05-07 15:00 35.03468 -12.02437 39240 ft 424 kts 212°
2026-05-07 15:00 35.00835 -12.04053 39487 ft 424 kts 212°
2026-05-07 15:00 34.98194 -12.05665 39728 ft 425 kts 211°
2026-05-07 15:00 34.95592 -12.07245 39913 ft 425 kts 211°
2026-05-07 15:01 34.92932 -12.08861 40104 ft 427 kts 211°
2026-05-07 15:01 34.90271 -12.10478 40260 ft 428 kts 211°
2026-05-07 15:01 34.87606 -12.12096 40448 ft 429 kts 212°
2026-05-07 15:01 34.84937 -12.13720 40648 ft 429 kts 211°
2026-05-07 15:02 34.82259 -12.15344 40823 ft 430 kts 212°
2026-05-07 15:02 34.79574 -12.16980 40966 ft 432 kts 212°
2026-05-07 15:02 34.74230 -12.20223 41003 ft 432 kts 211°
2026-05-07 15:03 34.68849 -12.23492 40998 ft 432 kts 211°
2026-05-07 15:03 34.63459 -12.26734 40998 ft 432 kts 211°
2026-05-07 15:04 34.58068 -12.29960 41001 ft 432 kts 211°
2026-05-07 15:04 34.52717 -12.33174 41002 ft 432 kts 211°
2026-05-07 15:05 34.47334 -12.36410 41004 ft 432 kts 211°
2026-05-07 15:05 34.41954 -12.39641 41004 ft 432 kts 211°
2026-05-07 15:06 34.36566 -12.42869 41005 ft 432 kts 211°
2026-05-07 15:06 34.31181 -12.46090 41004 ft 432 kts 211°
2026-05-07 15:07 34.25827 -12.49291 41001 ft 432 kts 211°
2026-05-07 15:07 34.20440 -12.52506 41001 ft 432 kts 211°
2026-05-07 15:08 34.15051 -12.55718 41001 ft 432 kts 211°
2026-05-07 15:08 34.09662 -12.58926 41002 ft 432 kts 211°
2026-05-07 15:09 34.04304 -12.62110 41006 ft 432 kts 211°
2026-05-07 15:09 33.98916 -12.65307 40999 ft 432 kts 211°
2026-05-07 15:10 33.93526 -12.68502 41005 ft 432 kts 211°
2026-05-07 15:10 33.88140 -12.71690 41005 ft 432 kts 211°
2026-05-07 15:11 33.82781 -12.74857 41006 ft 432 kts 211°
2026-05-07 15:11 33.77395 -12.78035 41005 ft 431 kts 211°
2026-05-07 15:12 33.72005 -12.81211 41004 ft 431 kts 211°
2026-05-07 15:12 33.66620 -12.84380 41006 ft 431 kts 211°
2026-05-07 15:13 33.61229 -12.87548 41006 ft 431 kts 211°
2026-05-07 15:13 33.55874 -12.90691 41006 ft 431 kts 211°
2026-05-07 15:14 33.50486 -12.93848 41000 ft 431 kts 212°
2026-05-07 15:14 33.45098 -12.97001 41007 ft 431 kts 212°
2026-05-07 15:15 33.39709 -13.00151 41007 ft 431 kts 212°
2026-05-07 15:15 33.34325 -13.03293 41007 ft 431 kts 211°
2026-05-07 15:16 33.28943 -13.06429 41012 ft 431 kts 211°
2026-05-07 15:20 33.28225 -13.06847 41013 ft 431 kts 211°
2026-05-07 15:20 33.22829 -13.09988 41009 ft 431 kts 212°
2026-05-07 15:21 33.17476 -13.13099 41012 ft 431 kts 212°
2026-05-07 15:21 33.12086 -13.16227 41013 ft 431 kts 212°
2026-05-07 15:22 33.06697 -13.19350 41012 ft 431 kts 212°
2026-05-07 15:22 33.01307 -13.22469 41012 ft 431 kts 212°
2026-05-07 15:23 32.95909 -13.25588 41002 ft 431 kts 212°
2026-05-07 15:23 32.90554 -13.28679 41013 ft 431 kts 212°
2026-05-07 15:24 32.85152 -13.31792 41012 ft 431 kts 212°
2026-05-07 15:24 32.79758 -13.34896 41012 ft 431 kts 212°
2026-05-07 15:25 32.74390 -13.37982 41011 ft 431 kts 212°
2026-05-07 15:25 32.68992 -13.41080 41012 ft 431 kts 212°
2026-05-07 15:26 32.63595 -13.44174 41012 ft 431 kts 212°
2026-05-07 15:26 32.58192 -13.47267 41013 ft 431 kts 212°
2026-05-07 15:27 32.52792 -13.50354 41019 ft 431 kts 212°
2026-05-07 15:27 32.47426 -13.53417 41015 ft 431 kts 212°
2026-05-07 15:28 32.42052 -13.56549 41011 ft 429 kts 217°
2026-05-07 15:28 32.36781 -13.59864 41011 ft 430 kts 217°
2026-05-07 15:29 32.31431 -13.63077 41011 ft 432 kts 216°
2026-05-07 15:29 32.25985 -13.66117 41017 ft 434 kts 210°
2026-05-07 15:30 32.20480 -13.68919 41012 ft 433 kts 210°
2026-05-07 15:30 32.15004 -13.71849 41015 ft 432 kts 211°
2026-05-07 15:31 32.09576 -13.74887 41017 ft 431 kts 212°
2026-05-07 15:31 32.04173 -13.77950 41016 ft 431 kts 212°
2026-05-07 15:32 31.98795 -13.80994 41016 ft 431 kts 212°
2026-05-07 15:32 31.93386 -13.84045 41016 ft 432 kts 212°
2026-05-07 15:33 31.87964 -13.87095 41022 ft 432 kts 212°
2026-05-07 15:33 31.82542 -13.90141 41012 ft 433 kts 212°
2026-05-07 15:34 31.77113 -13.93188 41021 ft 433 kts 212°
2026-05-07 15:34 31.71679 -13.96233 41020 ft 433 kts 212°
2026-05-07 15:35 31.66281 -13.99254 41018 ft 433 kts 212°
2026-05-07 15:35 31.60847 -14.02291 41020 ft 433 kts 212°
2026-05-07 15:36 31.55407 -14.05328 40999 ft 432 kts 212°
2026-05-07 15:36 31.49969 -14.08361 41021 ft 433 kts 212°
2026-05-07 15:37 31.44568 -14.11368 41022 ft 433 kts 212°
2026-05-07 15:37 31.39126 -14.14394 41024 ft 433 kts 212°
2026-05-07 15:38 31.33686 -14.17415 41021 ft 433 kts 212°
2026-05-07 15:38 31.28244 -14.20433 41025 ft 433 kts 212°
2026-05-07 15:39 31.22832 -14.23432 41025 ft 434 kts 212°
2026-05-07 15:39 31.17370 -14.26454 41023 ft 434 kts 212°
2026-05-07 15:40 31.11908 -14.29472 41023 ft 434 kts 212°
2026-05-07 15:40 31.06442 -14.32488 41023 ft 434 kts 212°
2026-05-07 15:41 31.00974 -14.35501 41024 ft 434 kts 212°
2026-05-07 15:41 30.95541 -14.38492 41021 ft 435 kts 212°
2026-05-07 15:42 30.90010 -14.41419 41024 ft 440 kts 208°
2026-05-07 15:42 30.84187 -14.43726 41023 ft 443 kts 205°
2026-05-07 15:43 30.78302 -14.45898 41023 ft 443 kts 205°
2026-05-07 15:43 30.72417 -14.48046 41023 ft 443 kts 205°
2026-05-07 15:44 30.66527 -14.50204 41020 ft 444 kts 205°
2026-05-07 15:44 30.60669 -14.52357 41023 ft 445 kts 205°
2026-05-07 15:45 30.54759 -14.54527 41023 ft 445 kts 205°
2026-05-07 15:45 30.48847 -14.56696 41023 ft 445 kts 205°
2026-05-07 15:46 30.40023 -14.59928 41003 ft 446 kts 205°
2026-05-07 15:47 30.34088 -14.62100 41023 ft 448 kts 205°
2026-05-07 15:47 30.28140 -14.64271 41022 ft 448 kts 205°
2026-05-07 15:48 30.22190 -14.66440 41023 ft 448 kts 205°
2026-05-07 15:48 30.16625 -14.68466 41023 ft 448 kts 205°
2026-05-07 15:49 30.10916 -14.70543 40995 ft 448 kts 205°
2026-05-07 15:49 30.04957 -14.72709 41021 ft 449 kts 205°
2026-05-07 15:50 29.99028 -14.74861 41021 ft 449 kts 205°
2026-05-07 15:50 29.93058 -14.77024 41020 ft 449 kts 205°
2026-05-07 15:51 29.87089 -14.79185 41020 ft 449 kts 205°
2026-05-07 15:51 29.81116 -14.81344 41020 ft 449 kts 205°
2026-05-07 15:52 29.75153 -14.83497 41020 ft 449 kts 205°
2026-05-07 15:52 29.69219 -14.85637 41020 ft 449 kts 205°
2026-05-07 15:53 29.63259 -14.87784 41021 ft 449 kts 205°
2026-05-07 15:53 29.57296 -14.89930 41020 ft 449 kts 205°
2026-05-07 15:54 29.51323 -14.92076 41020 ft 450 kts 205°
2026-05-07 15:54 29.45345 -14.94222 41023 ft 451 kts 205°
2026-05-07 15:55 29.39346 -14.96372 41023 ft 451 kts 205°
2026-05-07 15:55 29.33352 -14.98517 41021 ft 451 kts 205°
2026-05-07 15:56 29.27388 -15.00649 41023 ft 451 kts 205°
2026-05-07 15:56 29.21376 -15.02796 41013 ft 452 kts 205°
2026-05-07 15:57 29.15372 -15.04938 41021 ft 453 kts 205°
2026-05-07 15:57 29.09343 -15.07085 41024 ft 453 kts 205°
2026-05-07 15:58 29.03332 -15.09223 41019 ft 453 kts 205°
2026-05-07 15:58 28.97312 -15.11362 41021 ft 453 kts 205°
2026-05-07 15:59 28.91279 -15.13503 41008 ft 454 kts 205°
2026-05-07 15:59 28.85247 -15.15642 41024 ft 454 kts 205°
2026-05-07 16:00 28.79246 -15.17766 41021 ft 454 kts 205°
2026-05-07 16:00 28.73196 -15.19905 41021 ft 454 kts 205°
2026-05-07 16:01 28.67154 -15.22039 41015 ft 454 kts 205°
2026-05-07 16:01 28.61115 -15.24170 41006 ft 455 kts 205°
2026-05-07 16:02 28.55098 -15.26290 41002 ft 455 kts 205°
2026-05-07 16:02 28.49049 -15.28418 40997 ft 455 kts 205°
2026-05-07 16:03 28.42991 -15.30547 41000 ft 455 kts 205°
2026-05-07 16:03 28.36941 -15.32671 40956 ft 455 kts 205°
2026-05-07 16:04 28.30883 -15.34797 40997 ft 456 kts 204°
2026-05-07 16:04 28.24828 -15.36917 40995 ft 456 kts 204°
2026-05-07 16:05 28.18794 -15.39027 40991 ft 456 kts 204°
2026-05-07 16:05 28.12719 -15.41150 40985 ft 456 kts 204°
2026-05-07 16:06 28.06864 -15.43724 40965 ft 445 kts 215°
2026-05-07 16:06 28.01587 -15.47344 40995 ft 442 kts 219°
2026-05-07 16:07 27.96470 -15.51118 40993 ft 441 kts 219°
2026-05-07 16:07 27.91346 -15.54926 40994 ft 441 kts 219°
2026-05-07 16:08 27.86189 -15.58728 40998 ft 442 kts 219°
2026-05-07 16:08 27.81026 -15.62515 40989 ft 442 kts 219°
2026-05-07 16:09 27.76736 -15.65662 40991 ft 442 kts 219°
2026-05-07 16:09 27.70736 -15.70062 40991 ft 442 kts 219°
2026-05-07 16:10 27.66437 -15.73211 40994 ft 442 kts 219°
2026-05-07 16:10 27.61260 -15.76990 40993 ft 442 kts 219°
2026-05-07 16:11 27.56085 -15.80765 40998 ft 442 kts 219°
2026-05-07 16:11 27.50919 -15.84530 40999 ft 442 kts 219°
2026-05-07 16:12 27.45776 -15.88274 40997 ft 442 kts 219°
2026-05-07 16:12 27.40603 -15.92038 40991 ft 443 kts 219°
2026-05-07 16:13 27.35411 -15.95808 41000 ft 443 kts 219°
2026-05-07 16:13 27.30223 -15.99573 40996 ft 444 kts 219°
2026-05-07 16:14 27.25030 -16.03337 41002 ft 444 kts 218°
2026-05-07 16:14 27.19835 -16.07098 41003 ft 444 kts 218°
2026-05-07 16:15 27.14670 -16.10833 41004 ft 444 kts 218°
2026-05-07 16:15 27.09467 -16.14592 40998 ft 445 kts 218°
2026-05-07 16:16 27.04262 -16.18349 41005 ft 445 kts 218°
2026-05-07 16:16 26.99054 -16.22102 41006 ft 445 kts 218°
2026-05-07 16:17 26.93838 -16.25858 41006 ft 445 kts 218°
2026-05-07 16:17 26.88631 -16.29603 41006 ft 445 kts 218°
2026-05-07 16:18 26.83452 -16.33323 41001 ft 445 kts 218°
2026-05-07 16:18 26.78202 -16.37078 41004 ft 445 kts 218°
2026-05-07 16:19 26.72996 -16.40799 41006 ft 446 kts 218°
2026-05-07 16:19 26.67768 -16.44534 41007 ft 446 kts 218°
2026-05-07 16:20 26.62539 -16.48265 41010 ft 446 kts 218°
2026-05-07 16:20 26.57306 -16.51997 41006 ft 446 kts 218°
2026-05-07 16:21 26.52075 -16.55723 41006 ft 446 kts 218°
2026-05-07 16:21 26.46839 -16.59448 40991 ft 446 kts 218°
2026-05-07 16:22 26.41633 -16.63148 41006 ft 447 kts 218°
2026-05-07 16:22 26.36388 -16.66871 41007 ft 447 kts 218°
2026-05-07 16:23 26.31148 -16.70587 41002 ft 447 kts 218°
2026-05-07 16:23 26.25894 -16.74308 41006 ft 447 kts 218°
2026-05-07 16:24 26.20635 -16.78029 41008 ft 447 kts 218°
2026-05-07 16:24 26.15412 -16.81731 41003 ft 447 kts 218°
2026-05-07 16:25 26.10158 -16.85452 41004 ft 448 kts 218°
2026-05-07 16:25 26.04897 -16.89172 41004 ft 448 kts 218°
2026-05-07 16:26 25.99641 -16.92886 41003 ft 448 kts 218°
2026-05-07 16:26 25.94369 -16.96607 41002 ft 448 kts 218°
2026-05-07 16:27 25.89102 -17.00320 41004 ft 448 kts 218°
2026-05-07 16:27 25.83871 -17.04005 40979 ft 448 kts 217°
2026-05-07 16:28 25.78595 -17.07718 41005 ft 449 kts 217°
2026-05-07 16:28 25.73318 -17.11427 41004 ft 450 kts 217°
2026-05-07 16:29 25.68028 -17.15140 41003 ft 450 kts 217°
2026-05-07 16:29 25.62740 -17.18848 41004 ft 450 kts 217°
2026-05-07 16:30 25.57448 -17.22555 41000 ft 450 kts 217°
2026-05-07 16:30 25.52143 -17.26268 40968 ft 450 kts 217°
2026-05-07 16:31 25.46877 -17.29950 41000 ft 451 kts 217°
2026-05-07 16:31 25.41569 -17.33657 40998 ft 451 kts 217°
2026-05-07 16:32 25.36260 -17.37360 40998 ft 451 kts 217°
2026-05-07 16:32 25.30945 -17.41065 40993 ft 451 kts 217°
2026-05-07 16:33 25.25665 -17.44740 40995 ft 451 kts 217°
2026-05-07 16:33 25.20357 -17.48432 40996 ft 451 kts 217°
2026-05-07 16:34 25.15047 -17.52121 40998 ft 451 kts 217°
2026-05-07 16:34 25.09716 -17.55821 40996 ft 451 kts 217°
2026-05-07 16:35 25.04436 -17.59481 40998 ft 451 kts 217°
2026-05-07 16:35 24.99116 -17.63165 40995 ft 451 kts 217°
2026-05-07 16:36 24.93791 -17.66846 40994 ft 451 kts 217°
2026-05-07 16:36 24.88467 -17.70520 40997 ft 451 kts 217°
2026-05-07 16:37 24.83139 -17.74193 40988 ft 452 kts 217°
2026-05-07 16:37 24.77809 -17.77865 40994 ft 452 kts 216°
2026-05-07 16:38 24.72508 -17.81513 40995 ft 452 kts 216°
2026-05-07 16:38 24.67165 -17.85186 40995 ft 452 kts 216°
2026-05-07 16:39 24.61830 -17.88849 40998 ft 452 kts 216°
2026-05-07 16:39 24.56486 -17.92515 40999 ft 452 kts 216°
2026-05-07 16:40 24.51139 -17.96180 40995 ft 453 kts 216°
2026-05-07 16:40 24.45791 -17.99842 40997 ft 453 kts 216°
2026-05-07 16:41 24.40472 -18.03480 40991 ft 453 kts 216°
2026-05-07 16:41 24.35118 -18.07138 40991 ft 453 kts 216°
2026-05-07 16:42 24.29764 -18.10793 40986 ft 453 kts 216°
2026-05-07 16:42 24.24402 -18.14450 40991 ft 453 kts 216°
2026-05-07 16:43 24.19039 -18.18103 40983 ft 454 kts 216°
2026-05-07 16:43 24.13682 -18.21749 40997 ft 455 kts 216°
2026-05-07 16:44 24.08301 -18.25406 40993 ft 455 kts 216°
2026-05-07 16:44 24.02954 -18.29038 40986 ft 455 kts 216°
2026-05-07 16:45 23.97563 -18.32695 40989 ft 455 kts 216°
2026-05-07 16:45 23.92188 -18.36339 40995 ft 455 kts 216°
2026-05-07 16:46 23.86802 -18.39986 40982 ft 455 kts 216°
2026-05-07 16:46 23.81416 -18.43631 40992 ft 456 kts 216°
2026-05-07 16:47 23.76048 -18.47259 40988 ft 457 kts 216°
2026-05-07 16:47 23.70630 -18.50916 40987 ft 457 kts 216°
2026-05-07 16:48 23.65213 -18.54568 40988 ft 457 kts 216°
2026-05-07 16:48 23.59826 -18.58198 40987 ft 457 kts 216°
2026-05-07 16:49 23.54415 -18.61841 40989 ft 457 kts 216°
2026-05-07 16:49 23.48990 -18.65489 40987 ft 457 kts 216°
2026-05-07 16:50 23.43568 -18.69132 40984 ft 457 kts 216°
2026-05-07 16:50 23.38185 -18.72745 40985 ft 457 kts 216°
2026-05-07 16:51 23.32766 -18.76378 40983 ft 457 kts 216°
2026-05-07 16:51 23.27341 -18.80012 40984 ft 457 kts 216°
2026-05-07 16:52 23.21922 -18.83639 40961 ft 457 kts 215°
2026-05-07 16:52 23.16501 -18.87264 40979 ft 458 kts 215°
2026-05-07 16:53 23.11076 -18.90887 40983 ft 458 kts 215°
2026-05-07 16:53 23.05645 -18.94511 40980 ft 458 kts 215°
2026-05-07 16:54 23.00243 -18.98112 40982 ft 458 kts 215°
2026-05-07 16:54 22.94811 -19.01731 40982 ft 458 kts 215°
2026-05-07 16:55 22.89371 -19.05350 40984 ft 458 kts 215°
2026-05-07 16:55 22.83931 -19.08967 40982 ft 458 kts 215°
2026-05-07 16:56 22.78496 -19.12576 40975 ft 458 kts 215°
2026-05-07 16:56 22.70355 -19.17977 40987 ft 459 kts 215°
2026-05-07 16:57 22.64895 -19.21594 40976 ft 460 kts 215°
2026-05-07 16:57 22.59435 -19.25208 40977 ft 460 kts 215°
2026-05-07 16:58 22.53976 -19.28819 40980 ft 460 kts 215°
2026-05-07 16:58 22.49442 -19.31814 40981 ft 459 kts 215°
2026-05-07 16:59 22.43984 -19.35417 40981 ft 459 kts 215°
2026-05-07 16:59 22.37639 -19.39602 40978 ft 459 kts 215°
2026-05-07 17:00 22.33063 -19.42617 40981 ft 459 kts 215°
2026-05-07 17:00 22.27624 -19.46198 40978 ft 459 kts 215°
2026-05-07 17:01 22.22158 -19.49793 40978 ft 460 kts 215°
2026-05-07 17:01 22.16692 -19.53385 40978 ft 459 kts 214°
2026-05-07 17:02 22.11266 -19.56947 40978 ft 459 kts 214°
2026-05-07 17:02 22.05798 -19.60534 40973 ft 459 kts 214°
2026-05-07 17:03 22.00328 -19.64118 40978 ft 459 kts 214°
2026-05-07 17:03 21.94856 -19.67700 40978 ft 459 kts 214°
2026-05-07 17:04 21.89430 -19.71249 40976 ft 459 kts 214°
2026-05-07 17:04 21.83957 -19.74824 40979 ft 459 kts 214°
2026-05-07 17:05 21.78497 -19.78388 40976 ft 459 kts 214°
2026-05-07 17:05 21.73039 -19.81949 40973 ft 459 kts 214°
2026-05-07 17:06 21.67572 -19.85512 40977 ft 459 kts 214°
2026-05-07 17:06 21.62129 -19.89056 40977 ft 460 kts 214°
2026-05-07 17:07 21.56648 -19.92621 40977 ft 460 kts 214°
2026-05-07 17:07 21.51184 -19.96171 40976 ft 459 kts 215°
2026-05-07 17:08 21.45722 -19.99718 40977 ft 458 kts 215°
2026-05-07 17:08 21.40261 -20.03261 40977 ft 458 kts 215°
2026-05-07 17:09 21.34805 -20.06798 40974 ft 458 kts 215°
2026-05-07 17:09 21.29385 -20.10308 40977 ft 458 kts 215°
2026-05-07 17:10 21.23923 -20.13843 40972 ft 458 kts 215°
2026-05-07 17:10 21.18488 -20.17356 40973 ft 458 kts 215°
2026-05-07 17:11 21.13234 -20.20750 40977 ft 457 kts 215°
2026-05-07 17:11 21.07784 -20.24267 40977 ft 457 kts 215°
2026-05-07 17:12 21.02332 -20.27783 40979 ft 457 kts 215°
2026-05-07 17:12 20.96883 -20.31294 40979 ft 457 kts 215°
2026-05-07 17:13 20.91465 -20.34782 40977 ft 457 kts 215°
2026-05-07 17:13 20.86008 -20.38292 40961 ft 457 kts 215°
2026-05-07 17:14 20.80563 -20.41790 40977 ft 456 kts 215°
2026-05-07 17:14 20.75121 -20.45284 40977 ft 456 kts 215°
2026-05-07 17:15 20.69681 -20.48775 40976 ft 456 kts 215°
2026-05-07 17:15 20.64262 -20.52249 40977 ft 457 kts 215°
2026-05-07 17:16 20.58805 -20.55744 40977 ft 457 kts 215°
2026-05-07 17:16 20.53347 -20.59237 40977 ft 457 kts 215°
2026-05-07 17:17 20.47885 -20.62729 40972 ft 456 kts 215°
2026-05-07 17:17 20.42446 -20.66202 40975 ft 456 kts 215°
2026-05-07 17:18 20.37006 -20.69676 40975 ft 456 kts 214°
2026-05-07 17:18 20.31592 -20.73126 40977 ft 456 kts 214°
2026-05-07 17:19 20.26145 -20.76587 40975 ft 456 kts 214°
2026-05-07 17:19 20.20697 -20.80046 40977 ft 456 kts 214°
2026-05-07 17:20 20.15239 -20.83510 40977 ft 457 kts 214°
2026-05-07 17:20 20.09768 -20.86980 40977 ft 457 kts 214°
2026-05-07 17:21 20.04297 -20.90447 40974 ft 457 kts 214°
2026-05-07 17:21 19.98832 -20.93908 40974 ft 457 kts 214°
2026-05-07 17:22 19.93356 -20.97372 40973 ft 457 kts 214°
2026-05-07 17:22 19.87917 -21.00810 40976 ft 457 kts 214°
2026-05-07 17:23 19.82438 -21.04271 40971 ft 457 kts 214°
2026-05-07 17:23 19.76975 -21.07718 40972 ft 455 kts 214°
2026-05-07 17:24 19.71533 -21.11150 40972 ft 455 kts 214°
2026-05-07 17:24 19.66123 -21.14559 40969 ft 455 kts 214°
2026-05-07 17:25 19.60669 -21.17994 40968 ft 456 kts 214°
2026-05-07 17:25 19.55192 -21.21440 40970 ft 457 kts 214°
2026-05-07 17:26 19.49718 -21.24881 40970 ft 457 kts 214°
2026-05-07 17:26 19.44298 -21.28283 40975 ft 454 kts 214°
2026-05-07 17:27 19.38864 -21.31694 40977 ft 453 kts 214°
2026-05-07 17:27 19.33433 -21.35100 40976 ft 453 kts 214°
2026-05-07 17:28 19.28016 -21.38496 40975 ft 453 kts 214°
2026-05-07 17:28 19.22617 -21.41876 40975 ft 453 kts 214°
2026-05-07 17:29 19.17188 -21.45273 40978 ft 453 kts 214°
2026-05-07 17:29 19.11762 -21.48665 40973 ft 451 kts 214°
2026-05-07 17:30 19.06351 -21.52045 40977 ft 451 kts 214°
2026-05-07 17:30 19.00944 -21.55420 40976 ft 451 kts 214°
2026-05-07 17:31 18.95529 -21.58798 40974 ft 452 kts 214°
2026-05-07 17:31 18.90119 -21.62170 40974 ft 452 kts 214°
2026-05-07 17:32 18.84728 -21.65528 40974 ft 452 kts 214°
2026-05-07 17:32 18.80192 -21.68350 40961 ft 451 kts 215°
2026-05-07 17:33 18.73962 -21.72222 40974 ft 445 kts 215°
2026-05-07 17:33 18.68625 -21.75538 40969 ft 444 kts 215°
2026-05-07 17:34 18.63304 -21.78845 40978 ft 444 kts 215°
2026-05-07 17:34 18.57977 -21.82152 40975 ft 445 kts 214°
2026-05-07 17:35 18.52615 -21.85478 40978 ft 448 kts 214°
2026-05-07 17:35 18.49967 -21.87118 40804 ft 447 kts 214°
2026-05-07 17:35 18.47279 -21.88783 40554 ft 447 kts 214°
2026-05-07 17:36 18.44604 -21.90439 40304 ft 446 kts 215°
2026-05-07 17:36 18.41927 -21.92094 40071 ft 443 kts 215°
2026-05-07 17:36 18.39271 -21.93737 39824 ft 443 kts 215°
2026-05-07 17:36 18.36611 -21.95382 39578 ft 443 kts 215°
2026-05-07 17:37 18.33956 -21.97023 39354 ft 443 kts 214°
2026-05-07 17:37 18.31300 -21.98665 39155 ft 443 kts 214°
2026-05-07 17:37 18.28630 -22.00315 38758 ft 443 kts 214°
2026-05-07 17:37 18.26002 -22.01938 38226 ft 443 kts 214°
2026-05-07 17:38 18.23338 -22.03584 37701 ft 446 kts 214°
2026-05-07 17:38 18.20642 -22.05250 37156 ft 451 kts 214°
2026-05-07 17:38 18.17923 -22.06929 36514 ft 457 kts 214°
2026-05-07 17:38 18.15155 -22.08637 36199 ft 463 kts 213°
2026-05-07 17:39 18.09552 -22.12089 36016 ft 466 kts 213°
2026-05-07 17:39 18.06757 -22.13810 35524 ft 466 kts 213°
2026-05-07 17:39 18.03939 -22.15546 34713 ft 471 kts 213°
2026-05-07 17:40 18.01129 -22.17277 33908 ft 477 kts 212°
2026-05-07 17:40 17.98211 -22.19073 32966 ft 484 kts 212°
2026-05-07 17:40 17.95323 -22.20849 32091 ft 489 kts 212°
2026-05-07 17:40 17.92366 -22.22667 31205 ft 494 kts 212°
2026-05-07 17:41 17.89376 -22.24505 30351 ft 499 kts 212°
2026-05-07 17:41 17.86366 -22.26355 29439 ft 503 kts 212°
2026-05-07 17:41 17.83349 -22.28207 28472 ft 502 kts 212°
2026-05-07 17:41 17.80342 -22.30052 27571 ft 498 kts 212°
2026-05-07 17:42 17.77364 -22.31879 26696 ft 494 kts 212°
2026-05-07 17:42 17.74417 -22.33687 25889 ft 489 kts 212°
2026-05-07 17:42 17.71490 -22.35481 25142 ft 483 kts 212°
2026-05-07 17:42 17.68620 -22.37240 24761 ft 471 kts 212°
2026-05-07 17:43 17.65810 -22.38962 24384 ft 467 kts 212°
2026-05-07 17:43 17.63032 -22.40665 24012 ft 467 kts 212°
2026-05-07 17:43 17.60225 -22.42385 23640 ft 466 kts 212°
2026-05-07 17:43 17.57434 -22.44094 23209 ft 464 kts 212°
2026-05-07 17:44 17.54646 -22.45800 22764 ft 462 kts 212°
2026-05-07 17:44 17.51881 -22.47492 22326 ft 459 kts 212°
2026-05-07 17:44 17.49133 -22.49173 21897 ft 455 kts 211°
2026-05-07 17:44 17.46406 -22.50840 21481 ft 453 kts 212°
2026-05-07 17:45 17.43693 -22.52497 21066 ft 450 kts 212°
2026-05-07 17:45 17.41000 -22.54143 20649 ft 448 kts 211°
2026-05-07 17:45 17.38312 -22.55785 20250 ft 446 kts 211°
2026-05-07 17:45 17.35671 -22.57398 19975 ft 444 kts 211°
2026-05-07 17:46 17.32976 -22.59043 19733 ft 442 kts 211°
2026-05-07 17:46 17.30361 -22.60638 19421 ft 440 kts 212°
2026-05-07 17:46 17.27719 -22.62249 18818 ft 438 kts 211°
2026-05-07 17:46 17.25107 -22.63842 18074 ft 428 kts 211°
2026-05-07 17:47 17.22550 -22.65399 17272 ft 424 kts 212°
2026-05-07 17:47 17.20012 -22.66945 16484 ft 416 kts 211°
2026-05-07 17:47 17.18376 -22.67941 15960 ft 401 kts 211°
2026-05-07 17:47 17.15294 -22.69815 14957 ft 373 kts 211°
2026-05-07 17:48 17.13092 -22.71155 14220 ft 357 kts 212°
2026-05-07 17:48 17.11000 -22.72427 13463 ft 340 kts 212°
2026-05-07 17:48 17.08991 -22.73650 12662 ft 328 kts 212°
2026-05-07 17:48 17.07692 -22.74441 12168 ft 324 kts 212°
2026-05-07 17:49 17.05744 -22.75628 11519 ft 323 kts 212°
2026-05-07 17:49 17.03811 -22.76805 11055 ft 322 kts 212°
2026-05-07 17:49 17.01875 -22.77982 10700 ft 320 kts 212°
2026-05-07 17:49 16.99988 -22.79129 10219 ft 304 kts 212°
2026-05-07 17:50 16.98216 -22.80203 9755 ft 286 kts 212°
2026-05-07 17:50 16.96517 -22.81235 9253 ft 281 kts 212°
2026-05-07 17:50 16.94843 -22.82251 8756 ft 273 kts 212°
2026-05-07 17:50 16.93240 -22.83224 8257 ft 261 kts 212°
2026-05-07 17:51 16.91674 -22.84175 7777 ft 263 kts 213°
2026-05-07 17:51 16.90082 -22.85144 7310 ft 266 kts 213°
2026-05-07 17:51 16.88482 -22.86116 6843 ft 266 kts 213°
2026-05-07 17:51 16.86885 -22.87084 6387 ft 266 kts 213°
2026-05-07 17:52 16.85288 -22.88054 5901 ft 265 kts 213°
2026-05-07 17:52 16.83715 -22.89007 5421 ft 257 kts 213°
2026-05-07 17:52 16.82174 -22.89941 4938 ft 258 kts 214°
2026-05-07 17:52 16.80617 -22.90888 4457 ft 260 kts 213°
2026-05-07 17:53 16.79054 -22.91839 3973 ft 259 kts 212°
2026-05-07 17:53 16.77542 -22.92754 3493 ft 251 kts 212°
2026-05-07 17:53 16.76052 -22.93657 3006 ft 244 kts 211°
2026-05-07 17:53 16.74585 -22.94542 2521 ft 243 kts 212°
2026-05-07 17:54 16.73060 -22.95306 2117 ft 243 kts 201°
2026-05-07 17:54 16.71469 -22.95892 1992 ft 243 kts 198°
2026-05-07 17:54 16.69869 -22.96451 1986 ft 242 kts 198°
2026-05-07 17:54 16.68277 -22.97006 1989 ft 239 kts 198°
2026-05-07 17:55 16.66687 -22.97562 2012 ft 243 kts 199°
2026-05-07 17:55 16.65091 -22.98123 1986 ft 241 kts 198°
2026-05-07 17:55 16.63496 -22.98682 2006 ft 243 kts 199°
2026-05-07 17:55 16.61900 -22.99244 2003 ft 241 kts 198°
2026-05-07 17:56 16.60311 -22.99804 1985 ft 241 kts 197°
2026-05-07 17:56 16.58727 -23.00346 1990 ft 240 kts 196°
2026-05-07 17:56 16.57078 -23.00550 1988 ft 238 kts 172°
2026-05-07 17:56 16.55541 -23.00000 2006 ft 234 kts 144°
2026-05-07 17:57 16.54442 -22.98821 1991 ft 229 kts 118°
2026-05-07 17:57 16.54041 -22.97801 1982 ft 224 kts 98°
2026-05-07 17:57 16.54544 -22.95845 1990 ft 214 kts 45°
2026-05-07 17:57 16.55834 -22.95176 1936 ft 212 kts
2026-05-07 17:58 16.57276 -22.95371 1848 ft 204 kts 349°
2026-05-07 17:58 16.58561 -22.95826 1749 ft 187 kts 330°
2026-05-07 17:58 16.59201 -22.96894 1616 ft 174 kts 281°
2026-05-07 17:58 16.58820 -22.98014 1476 ft 163 kts 223°
2026-05-07 17:59 16.57808 -22.98301 1486 ft 152 kts 163°
2026-05-07 17:59 16.57085 -22.97616 1487 ft 141 kts 102°
2026-05-07 17:59 16.57313 -22.96703 1499 ft 134 kts 43°
2026-05-07 17:59 16.58197 -22.96544 1504 ft 140 kts 343°
2026-05-07 18:00 16.58777 -22.97354 1495 ft 153 kts 282°
2026-05-07 18:00 16.58864 -22.98460 1538 ft 153 kts 295°
2026-05-07 18:00 16.59646 -22.98911 1180 ft 127 kts 18°
2026-05-07 18:00 16.60466 -22.98478 1287 ft 133 kts 31°
2026-05-07 18:01 16.61237 -22.97989 1347 ft 125 kts 33°
2026-05-07 18:01 16.61940 -22.97509 1355 ft 119 kts 33°
2026-05-07 18:01 16.62608 -22.96998 1391 ft 118 kts 37°
2026-05-07 18:01 16.63257 -22.96477 1407 ft 117 kts 38°
2026-05-07 18:02 16.64637 -22.95529 1413 ft 121 kts 33°
2026-05-07 18:02 16.65330 -22.95049 1355 ft 117 kts 30°
2026-05-07 18:02 16.66157 -22.95018 1439 ft 121 kts 358°
2026-05-07 18:03 16.66980 -22.94963 1485 ft 120 kts
2026-05-07 18:03 16.67816 -22.94933 1459 ft 121 kts
2026-05-07 18:03 16.68689 -22.94928 1145 ft 127 kts
2026-05-07 18:03 16.69563 -22.94920 843 ft 125 kts
2026-05-07 18:04 16.70435 -22.94885 583 ft 124 kts
2026-05-07 18:04 16.71276 -22.94902 447 ft 121 kts
2026-05-07 18:04 16.72112 -22.94893 288 ft 119 kts
2026-05-07 18:04 16.72954 -22.94880 205 ft 117 kts
2026-05-07 18:05 16.73533 -22.94876 206 ft 43 kts 359°
2026-05-07 18:05 16.73646 -22.94880 198 ft 28 kts 355°
2026-05-07 18:05 16.73985 -22.94896 197 ft 52 kts 359°
2026-05-07 18:05 16.74319 -22.94900 201 ft 40 kts 359°
2026-05-07 18:06 16.74537 -22.94901 203 ft 24 kts 360°
2026-05-07 18:06 16.74598 -22.94902 200 ft 0 kts 359°